Weather History for Winnipeg, MB

Change the Weather History Date:

Sunday, October 7, 2012

  Actual Average Record
Temperature  
Mean Temperature 42 °F -  
Max Temperature 51 °F 55 °F 80 °F (2003)
Min Temperature 33 °F 33 °F 19 °F (2000)
Degree Days  
Heating Degree Days 23    
Moisture  
Dew Point 31 °F    
Average Humidity 67    
Maximum Humidity 87    
Minimum Humidity 49    
Precipitation  
Precipitation 0.02 in - - ()
Sea Level Pressure  
Sea Level Pressure 29.86 in    
Wind  
Wind Speed 7 mph ()    
Max Wind Speed 14 mph    
Max Gust Speed -    
Visibility 14.1 miles    
Events      
Averages and records for this station are not official NWS values.
T = Trace of Precipitation, MM = Missing Value Source: Averaged Metar Reports

Daily Weather History Graph

Daily Weather History Graph

Search for Another Location

Airport:

Trip Planner

Search our weather history database for the weather conditions in past years. The results will help you decide how hot, cold, wet, or windy it might be!

Date:

Astronomy

Oct. 07, 2012 Rise Set
Actual Time 7:38 AM CDT 6:53 PM CDT
Civil Twilight 7:06 AM CDT 7:25 PM CDT
Nautical Twilight 6:29 AM CDT 8:02 PM CDT
Astronomical Twilight 5:51 AM CDT 8:40 PM CDT
Moon 11:43 PM CDT (10/7) 2:41 PM CDT (10/7)
Length of Visible Light 12h 18m
Length of Day
11h 14m
Waning Gibbous, 56% of the Moon is Illuminated
Oct 7
Waning Gibbous
Oct 8
Last Quarter
Oct 15
New
Oct 21
First Quarter
Oct 29
Full

Hourly Weather History & Observations

Time (CDT) Temp. Windchill Dew Point Humidity Pressure Visibility Wind Dir Wind Speed Gust Speed Precip Events Conditions
12:00 AM 35.6 °F 26.6 °F 23.0 °F 60% 30.03 in 15.0 mi SW 13.8 mph - N/A   Scattered Clouds
1:00 AM 36 °F - 24 °F 49% 29.99 in 9 mi Calm Calm - -  
1:00 AM 37.4 °F 30.3 °F 24.8 °F 60% 29.99 in 15.0 mi SW 10.4 mph - N/A   Mostly Cloudy
2:00 AM 37.4 °F 29.8 °F 24.8 °F 60% 29.96 in 15.0 mi SW 11.5 mph - N/A   Mostly Cloudy
3:00 AM 35.6 °F 28.0 °F 26.6 °F 70% 29.95 in 15.0 mi SSW 10.4 mph - N/A   Overcast
4:00 AM 35.6 °F 29.2 °F 26.6 °F 70% 29.92 in 15.0 mi SSW 8.1 mph - N/A   Overcast
5:00 AM 35.6 °F 30.7 °F 28.4 °F 75% 29.90 in 15.0 mi SSW 5.8 mph - N/A   Mostly Cloudy
6:00 AM 35.6 °F 29.2 °F 28.4 °F 75% 29.88 in 15.0 mi SSW 8.1 mph - N/A   Mostly Cloudy
7:00 AM 34 °F - 28 °F 71% 29.86 in 9 mi Calm Calm - -  
7:00 AM 33.8 °F 28.6 °F 28.4 °F 81% 29.86 in 15.0 mi SSW 5.8 mph - N/A   Mostly Cloudy
8:00 AM 33.8 °F 29.6 °F 28.4 °F 81% 29.86 in 15.0 mi SW 4.6 mph - N/A   Mostly Cloudy
9:00 AM 35.6 °F 29.9 °F 30.2 °F 81% 29.87 in 15.0 mi West 6.9 mph - N/A   Overcast
10:00 AM 39.2 °F 32.5 °F 30.2 °F 70% 29.86 in 15.0 mi WNW 10.4 mph - N/A   Overcast
11:00 AM 42.8 °F 38.6 °F 32.0 °F 66% 29.86 in 15.0 mi West 6.9 mph - N/A   Mostly Cloudy
12:00 PM 44.6 °F 42.2 °F 33.8 °F 66% 29.85 in 15.0 mi WNW 4.6 mph - N/A   Overcast
1:00 PM 47 °F - 35 °F 52% 29.84 in 9 mi Calm Calm - -  
1:00 PM 46.4 °F - 35.6 °F 66% 29.84 in 15.0 mi NNW 2.3 mph - N/A   Mostly Cloudy
2:00 PM 48.2 °F - 35.6 °F 62% 29.83 in 15.0 mi West 5.8 mph - N/A   Mostly Cloudy
3:00 PM 50.0 °F - 35.6 °F 58% 29.81 in 15.0 mi SW 4.6 mph - N/A   Mostly Cloudy
4:00 PM 50.0 °F - 33.8 °F 54% 29.81 in 15.0 mi WSW 5.8 mph - N/A   Overcast
5:00 PM 50.0 °F - 35.6 °F 58% 29.80 in 15.0 mi West 4.6 mph - N/A   Mostly Cloudy
6:00 PM 48.2 °F - 33.8 °F 58% 29.79 in 15.0 mi WSW 4.6 mph - N/A   Mostly Cloudy
7:00 PM 45 °F - 34 °F 55% 29.79 in 9 mi Calm Calm - -  
7:00 PM 44.6 °F 42.2 °F 33.8 °F 66% 29.79 in 25.0 mi SW 4.6 mph - N/A   Mostly Cloudy
8:00 PM 42.8 °F 39.3 °F 35.6 °F 76% 29.79 in 15.0 mi WSW 5.8 mph - N/A   Mostly Cloudy
9:00 PM 41.0 °F 36.4 °F 35.6 °F 81% 29.78 in 15.0 mi West 6.9 mph - N/A   Mostly Cloudy
10:00 PM 41.0 °F - 35.6 °F 81% 29.76 in 15.0 mi West 2.3 mph - N/A   Mostly Cloudy
11:00 PM 37.4 °F 33.8 °F 33.8 °F 87% 29.75 in 15.0 mi South 4.6 mph - N/A   Mostly Cloudy
11:07 PM 35.6 °F 31.7 °F - N/A% - 15.0 mi SSE 4.6 mph - N/A   Mostly Cloudy